EW7837 Weather Reports


time (UTC)temp
C
wind
direction
speed
KPH
gust
KPH
rain 1hr
cm
rain 24hr
cm
rain mn
cm
humidity
%
barometer
mb
20260904094522 19 250 0.0 0.0 0.00 0.00 0.00 86 1009.2
20260904093023 18 250 0.0 0.0 0.00 0.00 0.00 86 1008.9
20260904091522 18 250 0.0 0.0 0.00 0.00 0.00 87 1009.0
20260904090019 18 250 0.0 0.0 0.00 0.00 0.00 87 1009.4
20260904084519 18 250 0.0 0.0 0.00 0.00 0.00 87 1009.5
20260904083019 18 250 0.0 0.0 0.00 0.00 0.00 87 1009.5
20260904081518 18 250 0.0 0.0 0.00 0.00 0.00 87 1009.3
20260904080016 17 250 0.0 0.0 0.00 0.00 0.00 87 1009.4
20260904074516 17 250 0.0 0.0 0.00 0.00 0.00 87 1009.8
20260904073015 17 250 0.0 0.0 0.00 0.00 0.00 87 1009.8
20260904071514 17 250 0.0 0.0 0.00 0.00 0.00 86 1009.6
20260904070050 17 250 0.0 0.0 0.00 0.00 0.00 86 1009.4
20260904064550 17 250 0.0 0.0 0.00 0.00 0.00 86 1009.5
20260904063055 17 250 0.0 0.0 0.00 0.00 0.00 86 1009.6
20260904061539 18 250 0.0 0.0 0.00 0.00 0.00 86 1009.5
20260904060039 18 250 0.0 0.0 0.00 0.00 0.00 85 1009.5
20260904054533 18 250 0.0 0.0 0.00 0.00 0.00 85 1009.5
20260904053024 18 250 0.0 0.0 0.00 0.00 0.00 85 1009.2
20260904051609 18 250 0.0 0.0 0.00 0.00 0.00 84 1009.6
20260904050050 19 250 0.0 0.0 0.00 0.00 0.00 83 1009.5
20260904044549 19 250 0.0 0.0 0.00 0.00 0.00 83 1009.5
20260904043046 20 250 0.0 0.0 0.00 0.00 0.00 82 1009.5
20260904041544 20 250 0.0 0.0 0.00 0.00 0.00 81 1009.0
20260904040044 21 250 0.0 0.0 0.00 0.00 0.00 81 1009.0
20260904034538 21 250 0.0 0.0 0.00 0.00 0.00 82 1009.3
20260904033036 21 250 0.0 0.0 0.00 0.00 0.00 81 1009.2
20260904031534 21 250 0.0 0.0 0.00 0.00 0.00 81 1009.0
20260904030104 21 250 0.0 0.0 0.00 0.00 0.00 80 1008.7
20260904024534 21 250 0.0 0.0 0.00 0.00 0.00 80 1008.7
20260904023034 21 250 0.0 0.0 0.00 0.00 0.00 79 1009.0
20260904021531 22 250 0.0 0.0 0.00 0.00 0.00 78 1009.0
20260904020025 22 250 0.0 0.0 0.00 0.00 0.00 76 1009.0
20260904014526 23 250 0.0 0.0 0.00 0.00 0.00 73 1009.0
20260904013128 23 250 0.0 0.0 0.00 0.00 0.00 72 1008.8
20260904011531 23 250 0.0 0.0 0.00 0.00 0.00 71 1009.0
20260904010038 23 250 0.0 0.0 0.00 0.00 0.00 71 1009.3
20260904004524 24 257 0.0 0.0 0.00 0.00 0.00 71 1009.4
20260904003122 24 275 0.0 0.0 0.00 0.00 0.00 71 1009.3
20260904001527 24 258 0.0 0.0 0.00 0.00 0.00 71 1009.1
20260904000032 24 231 0.0 0.0 0.00 0.00 0.00 70 1008.9
20260903234526 25 265 0.0 0.0 0.00 0.00 0.00 70 1009.0
20260903233026 25 254 0.0 0.0 0.00 0.00 0.00 69 1009.5
20260903231524 25 267 0.0 0.0 0.00 0.00 0.00 67 1009.6
20260903230024 25 178 0.0 0.0 0.00 0.00 0.00 66 1009.6
20260903224522 25 215 0.0 0.0 0.00 0.00 0.00 66 1009.8
20260903223031 25 273 0.0 0.0 0.00 0.00 0.00 66 1009.6
20260903221520 25 230 0.0 0.0 0.00 0.00 0.00 66 1009.6
20260903220019 26 270 0.0 0.0 0.00 0.00 0.00 64 1010.1
20260903214520 26 266 1.6 0.0 0.00 0.00 0.00 65 1010.0
20260903213019 26 273 0.0 0.0 0.00 0.00 0.00 65 1010.1
20260903211515 26 227 0.0 0.0 0.00 0.00 0.00 67 1010.1
20260903210015 26 260 0.0 0.0 0.00 0.00 0.00 66 1010.0
20260903204516 26 267 0.0 0.0 0.00 0.00 0.00 67 1010.1
20260903203012 25 265 0.0 0.0 0.00 0.00 0.00 65 1010.3
20260903201509 25 265 1.6 0.0 0.00 0.00 0.00 68 1010.3
20260903200010 25 221 1.6 0.0 0.00 0.00 0.00 69 1010.5
20260903194505 25 209 0.0 0.0 0.00 0.00 0.00 68 1010.4
20260903193005 25 238 0.0 0.0 0.00 0.00 0.00 67 1010.6
20260903191538 26 234 0.0 0.0 0.00 0.00 0.00 67 1010.7
20260903190033 25 257 0.0 0.0 0.00 0.00 0.00 65 1010.9
20260903184558 26 257 0.0 0.0 0.00 0.00 0.00 65 1011.1
20260903183055 25 243 0.0 0.0 0.00 0.00 0.00 64 1011.0
20260903181549 26 245 0.0 0.0 0.00 0.00 0.00 63 1011.3
20260903180049 25 242 0.0 0.0 0.00 0.00 0.00 64 1011.3
20260903174543 26 253 0.0 0.0 0.00 0.00 0.00 65 1011.4
20260903173039 25 254 0.0 0.0 0.00 0.00 0.00 63 1011.1
20260903171515 25 261 0.0 0.0 0.00 0.00 0.00 64 1011.5
20260903170011 24 261 0.0 0.0 0.00 0.00 0.00 66 1011.4
20260903164506 23 261 0.0 0.0 0.00 0.00 0.00 70 1011.5
20260903163037 22 261 0.0 0.0 0.00 0.00 0.00 74 1011.2
20260903161537 22 261 0.0 0.0 0.00 0.00 0.00 76 1011.7
20260903160050 21 261 0.0 0.0 0.00 0.00 0.00 76 1011.7
20260903154519 21 261 0.0 0.0 0.00 0.00 0.00 80 1011.7
20260903153013 20 261 0.0 0.0 0.00 0.00 0.00 80 1011.7
20260903151509 18 261 0.0 0.0 0.00 0.00 0.00 84 1011.5
20260903150014 17 261 0.0 0.0 0.00 0.00 0.00 87 1011.8
20260903144605 17 261 0.0 0.0 0.00 0.00 0.00 89 1011.7
20260903143031 16 261 0.0 0.0 0.00 0.00 0.00 91 1011.6
20260903141526 15 261 0.0 0.0 0.00 0.00 0.00 91 1011.6
20260903140022 15 261 0.0 0.0 0.00 0.00 0.00 91 1011.0
20260903134521 15 261 0.0 0.0 0.00 0.00 0.00 91 1011.1
20260903133020 15 261 0.0 0.0 0.00 0.00 0.00 91 1011.1
20260903131520 15 261 0.0 0.0 0.00 0.00 0.00 91 1011.1
20260903130017 15 261 0.0 0.0 0.00 0.00 0.00 90 1011.1
20260903124517 15 261 0.0 0.0 0.00 0.00 0.00 90 1010.8
20260903123017 15 261 0.0 0.0 0.00 0.00 0.00 90 1011.1
20260903121515 15 261 0.0 0.0 0.00 0.00 0.00 90 1011.0
20260903120012 15 261 0.0 0.0 0.00 0.00 0.00 90 1011.1
20260903114512 15 261 0.0 0.0 0.00 0.00 0.00 90 1011.0
20260903113010 15 261 0.0 0.0 0.00 0.00 0.00 89 1010.8
20260903111509 15 261 0.0 0.0 0.00 0.00 0.00 90 1011.1
20260903110005 15 261 0.0 0.0 0.00 0.00 0.00 89 1011.1
20260903104505 15 261 0.0 0.0 0.00 0.00 0.00 89 1011.1
20260903103003 15 261 0.0 0.0 0.00 0.00 0.00 90 1011.1
20260903101503 15 261 0.0 0.0 0.00 0.00 0.00 89 1010.9
20260903100031 15 261 0.0 0.0 0.00 0.00 0.00 89 1011.2